Home > Time Zones > World Clock > Weather > India > Sikar > Past weeks

Flag for India Weather past 2 weeks in Sikar, Rajasthan, India

Now
91 °F

Passing clouds.


Feels Like: 96 °F
Forecast: 82 / 97 °F
Wind: 9 mph from East

Location: Jaipur / Sanganer

Current Time: Jul 7, 2015 at 9:14:55 PM

Latest Report: Jul 7, 2015 at 8:00 PM


Visibility: 2 mi

Pressure: 29.50 "Hg

Humidity: 46%

Dew point: 68 °F

Location of SikarLocation

Historic Weather in Sikar — Graph

°F

Sikar temperature yesterday

Maximum temperature yesterday: 97 °F (at 5:00 PM)
Minimum temperature yesterday: 86 °F (at 6:00 AM)
Average temperature yesterday: 91 °F

Past Weeks' High & Low Weather Summary

 TemperatureHumidityPressure
High102 °F (Jun 23, 3:00 PM)100% (Jun 25, 3:00 AM)29.77 "Hg (Jun 25, 3:00 AM)
Low75 °F (Jun 29, 9:00 PM)27% (Jun 28, 4:00 PM)29.39 "Hg (Jun 25, 3:00 AM)
Average88 °F64%29.58 "Hg
* Reported Jun 22 6:30 PM — Jul 7 7:00 PM, Sikar, Weather by CustomWeather, © 2015

Note: Actual official high and low records may vary slightly from our data, if they occured in-between our weather recording intervals... More about our weather records

Advertising

Sikar weather history for previous 24 hours

 ConditionsComfort  
Time TempWeatherWind HumidityBarometerVisibility
7:00 PM
Tue, Jul 7
93 °FScattered clouds.7 mph49%29.47 "Hg2 mi
6:00 PM95 °FScattered clouds.8 mph44%29.47 "Hg2 mi
5:00 PM97 °FScattered clouds.8 mph44%29.47 "Hg2 mi
4:00 PM95 °FScattered clouds.15 mph47%29.50 "HgN/A
2:00 PM97 °FScattered clouds.9 mph56%29.56 "Hg2 mi
1:00 PM97 °FScattered clouds.9 mph56%29.56 "Hg2 mi
12:00 PM93 °FScattered clouds.9 mph67%29.59 "Hg2 mi
11:00 AM90 °FBroken clouds.10 mph67%29.59 "Hg2 mi
9:00 AM88 °FPartly sunny.9 mph62%29.56 "Hg1 mi
8:00 AM86 °FScattered clouds.7 mph66%29.56 "Hg1 mi
7:00 AM86 °FScattered clouds.6 mph66%29.53 "Hg1 mi
6:00 AM86 °FPassing clouds.3 mph66%29.53 "Hg1 mi
5:30 AM86 °FPartly cloudy.6 mph66%29.50 "Hg1 mi
5:00 AM88 °FPartly cloudy.7 mph70%29.50 "Hg1 mi
4:00 AM88 °FPartly cloudy.8 mph70%29.50 "Hg1 mi
3:00 AM88 °FPartly cloudy.6 mph70%29.50 "Hg1 mi
2:00 AM88 °FPartly cloudy.1 mph70%29.53 "Hg1 mi
1:00 AM88 °FPartly cloudy.6 mph66%29.53 "Hg1 mi
12:00 AM90 °FPartly cloudy.5 mph59%29.53 "Hg1 mi
10:00 PM
Mon, Jul 6
90 °FPartly cloudy.6 mph55%29.56 "Hg1 mi
9:00 PM91 °FPassing clouds.6 mph49%29.53 "Hg1 mi
Weather by CustomWeather, © 2015

See weather overviewHow to use our weather pages